Tracking 20628 objects as of 7-Apr-2020
HD Live streaming from Space Station
objects crossing your sky now

ARIANE 2 DEB

Track ARIANE 2 DEB now!


NORAD ID: 26717
Int'l Code: 1989-006C
Perigee: 586.8 km
Apogee: 35,695.1 km
Inclination: 8.1 °
Period: 636.5 minutes
Semi major axis: 24511 km
RCS: 4.1288 m2 (large)
Launch date: January 27, 1989
Source: France (FR)
Launch site: FRENCH GUIANA (FRGUI)

Note: This is SATELLITE DEBRIS
aabbcc
Your satellite tracking list
Your tracking list is empty




NASA's NSSDC Master Catalog

Two Line Element Set (TLE):
1 26717U 89006C   20098.41138997 -.00000102 +00000-0 -35512-4 0  9992
2 26717 008.0579 289.6026 7161463 049.3747 350.2352 02.26222970159242
Source of the keplerian elements: AFSPC